Tracking 18843 objects as of 20-November-2017
HD Live streaming from Space Station
objects crossing your sky now

COSMOS 2129

Track COSMOS 2129 now!
10-day predictions
COSMOS 2129 is classified as:


NORAD ID: 21104
Int'l Code: 1991-009E
Perigee: 1,437.2 km
Apogee: 1,475.2 km
Inclination: 74.0 °
Period: 114.9 minutes
Semi major axis: 7827 km
RCS: 0.6817 m2 (medium)
Launch date: February 12, 1991
Source: Commonwealth of Independent States (former USSR) (CIS)
Launch site: PLESETSK MISSILE AND SPACE COMPLEX (PKMTR)
aabbcc
Your satellite tracking list
Your tracking list is empty




NASA's NSSDC Master Catalog

Two Line Element Set (TLE):
1 21104U 91009E   17323.78440781 -.00000020 +00000-0 -27791-4 0  9996
2 21104 074.0317 069.4848 0024304 068.9393 044.8535 12.53693641225066
Source of the keplerian elements: AFSPC